Miscellaneous Local Product
Issued by NWS Hastings, NE

Home | Current Version | Previous Version | Graphics & Text | Print | Product List | Glossary On
Versions: 1 2 3 4 5 6 7 8 9 10 11 12 13 14 15 16 17 18 19 20 21 22 23 24 25 26 27 28 29 30 31 32 33 34 35 36 37 38 39 40 41 42 43 44 45 46 47 48 49 50
436
AXUS43 KGID 240302
MISGRI

GID CWA HOURLY WEATHER ROUNDUP
NATIONAL WEATHER SERVICE HASTINGS NE
1000 PM CDT MON MAY 23 2016

NOTE: "FAIR" INDICATES FEW OR NO CLOUDS BELOW 12,000 FEET WITH NO
SIGNIFICANT WEATHER AND/OR OBSTRUCTIONS TO VISIBILITY.

...SOUTH CENTRAL NEBRASKA...

CITY           SKY/WX    TMP DP  RH WIND       PRES   REMARKS
GRAND ISLAND   TSTM      60  58  92 S15       29.80R FOG
HASTINGS       CLOUDY    65  62  90 E6        29.79R
KEARNEY        PTCLDY    64  61  88 E3        29.79R
ORD            CLEAR     67  62  84 SE9       29.77R
YORK           TSTM      61  59  94 N17G24    29.81R VSB 3/4
AURORA         TSTM      60  60  97 S10       29.82R
LEXINGTON      CLEAR     66  53  63 CALM      29.80R
HOLDREGE       HAZE      65  59  80 NE5       29.78R VSB 3/4
HEBRON         CLOUDY    70  61  73 S13       29.78R

...NEBRASKA PANHANDLE...

CITY           SKY/WX    TMP DP  RH WIND       PRES   REMARKS
CHADRON        PTCLDY    58  40  51 S16       29.81S
ALLIANCE       CLEAR     45  43  93 SE6       29.85F
SCOTTSBLUFF    CLEAR     49  45  86 SE6       29.87R
SIDNEY         CLOUDY    49  42  77 E6        29.90R

...WESTERN AND NORTH CENTRAL NEBRASKA...

CITY           SKY/WX    TMP DP  RH WIND       PRES   REMARKS
VALENTINE      CLOUDY    65  41  41 W13       29.79R
AINSWORTH      PTCLDY    63  43  47 W12       29.78R
ONEILL         CLEAR     69  53  56 S6        29.76R
BROKEN BOW     CLEAR     62  46  55 CALM      29.79R
IMPERIAL       PTCLDY    60  44  55 N17       29.85R
NORTH PLATTE   CLEAR     56  47  71 W3        29.81R HAZE
MCCOOK         CLEAR     62  53  72 NW8       29.81R

...EASTERN NEBRASKA...

CITY           SKY/WX    TMP DP  RH WIND       PRES   REMARKS
NORFOLK        CLOUDY    66  61  84 SE10      29.77F
SO SIOUX CITY    N/A    N/A N/A N/A MISG      29.78R
TEKAMAH        CLOUDY    66  63  90 S6        29.79R
COLUMBUS       CLOUDY    68  59  73 E8        29.77F
ALBION         CLOUDY    65  58  78 CALM      29.78S
OMAHA EPPLEY   CLOUDY    68  62  81 S10       29.80R
OFFUTT AFB     CLOUDY    66  63  91 SE7       29.80R
MILLARD        CLOUDY    68  62  79 E3        29.79R
LINCOLN        MOCLDY    70  62  76 SE10      29.78S
NEBRASKA CITY  CLOUDY    67  61  81 SE9       29.81R
BEATRICE       CLOUDY    69  61  76 S6        29.79R
FALLS CITY     CLOUDY    68  63  84 S12       29.83R

...NORTHERN KANSAS...

CITY           SKY/WX    TMP DP  RH WIND       PRES   REMARKS
GOODLAND       CLEAR     60  51  72 NE7       29.82R
HILL CITY      CLEAR     68  63  84 CALM      29.77R
NORTON         CLEAR     68  57  68 CALM      29.78R HAZE
PHILLIPSBURG   CLEAR     70  63  78 CALM      29.77R
SMITH CENTER   PTCLDY    66  63  88 SE10      29.77S
BELOIT         CLEAR     66  61  82 SE12      29.76S
HAYS           CLEAR     70  61  73 SE8       29.77R
RUSSELL        CLEAR     69  65  86 SE12      29.75R
CONCORDIA      CLEAR     68  59  73 S15       29.78S
SALINA         CLOUDY    71  61  70 S15       29.80R
TOPEKA         CLOUDY    65  61  87 E6        29.84S



USA.gov is the U.S. government's official web portal to all federal, state and local government web resources and services.